Weather Roundup
Issued by NWS Chicago, IL

Home | Current Version | Previous Version | Graphics & Text | Print | Product List | Glossary On
Versions: 1 2 3 4 5 6 7 8 9 10 11 12 13 14 15 16 17 18 19 20 21 22 23 24 25 26 27 28 29 30 31 32 33 34 35 36 37 38 39 40 41 42 43 44 45 46 47 48 49 50
000
NZUS59 KLOT 300208
HRRLOT

CHICAGO AREA WEATHER ROUNDUP
NATIONAL WEATHER SERVICE CHICAGO/ROMEOVILLE IL
900 PM CDT FRI APR 29 2016

NOTE: "FAIR" INDICATES FEW OR NO CLOUDS BELOW 12,000 FEET WITH NO
SIGNIFICANT WEATHER AND/OR OBSTRUCTIONS TO VISIBILITY.

* THESE STATIONS ARE NOT UNDER NWS QUALITY CONTROL. THEY ALSO MAY NOT
  REPORT WEATHER SUCH AS PRECIPITATION OR FOG.

ILZ005-006-012>014-019>023-300300-
NORTHEAST ILLINOIS

CITY           SKY/WX    TMP DP  RH WIND       PRES   REMARKS
OHARE          CLOUDY    43  38  82 NE8       30.13F
MIDWAY         CLOUDY    45  37  73 NE8       30.13F
AURORA         CLOUDY    48  40  73 NE12      30.12F
LANSING*       CLOUDY    43  38  85 NE8       30.14F
JOLIET*        CLOUDY    46  41  81 NE10      30.13S
WAUKEGAN       CLOUDY    42  37  82 NE7       30.14S
DUPAGE AIRPORT CLOUDY    45  37  73 E12       30.11F
WHEELING       CLOUDY    43  37  79 NE7       30.15F
KANKAKEE*      CLOUDY    46  40  81 NE8       30.13S
MORRIS*        CLOUDY    47  41  79 E9        30.11R
LEWIS AIRPORT* CLOUDY    44  39  80 E10       30.12S
$$

WIZ051-052-058>065-066-070>072-300300-
SOUTHEAST WISCONSIN

CITY           SKY/WX    TMP DP  RH WIND       PRES   REMARKS
MILWAUKEE      PTCLDY    40  33  76 NE5       30.15R
KENOSHA*       CLOUDY    42  36  79 E7        30.15S
RACINE*        CLOUDY    41  34  76 NE5       30.17R
BURLINGTON     MOCLDY    41  36  81 E6        30.14S
WAUKESHA       CLEAR     39  34  81 E5        30.15R
WEST BEND      CLEAR     41  30  65 E3        30.15R
$$

INZ001>003-010>013-019-020-300300-
NORTHWEST INDIANA

CITY           SKY/WX    TMP DP  RH WIND       PRES   REMARKS
GARY*          CLOUDY    43  43 100 NE8       30.15S
MICHIGAN CITY* NOT AVBL
RENSSELAER*    NOT AVBL
VALPARAISO     CLOUDY    43  40  89 N5        30.14S
$$

LMZ740>746-300300-
SOUTHERN LAKE MICHIGAN

STATION/POSITION TIME  SKY/WX   TEMP WIND        PRES    VSBY
                                AIR  DIR/SP/G
                 (UTC)          (F)  (DEG/KT/KT) (MB)    (MI)
HARRISON CRIB    0100            42   10/  8/  9   N/A
BURNHAM HARBOR   0200            42   10/  8/ 10   N/A
CALUMET HARBOR   0100            42              1020.2R
BURNS HARBOR     0100            42   30/  7/ 10 1021.3R
MICHIGAN CITY    0100            42  360/  8/  9   N/A
$$

ABBREVIATIONS USED IN REMARKS
   TC - TEMPERATURE IN CELSIUS
  WCI - WIND CHILL INDEX
   HX - HEAT INDEX
  VSB - VISIBILITY
$$




USA.gov is the U.S. government's official web portal to all federal, state and local government web resources and services.